Wind_Speed
18 19 19 19 19 20 19 19 18 18 19 20 18 17 16 16 15 14 13 12 10 10 10 10 9 9 10 10 11 11 11 11 11 10 10 11 11 12 12 11 11 11 11 11
19 18 18 20 20 20 20 19 18 19 20 21 20 19 18 17 16 16 14 13 12 11 11 10 10 11 11 11 13 12 12 12 10 10 11 12 12 12 12 12 12 12 12 12
19 19 20 20 20 20 20 20 20 21 21 22 22 22 21 19 18 17 16 14 14 13 12 12 11 12 12 12 13 13 12 12 11 11 12 12 12 12 13 13 13 13 12 12
21 20 21 21 21 20 20 20 21 21 22 23 23 22 21 19 19 17 16 15 15 15 14 14 13 13 13 12 13 13 12 12 12 12 12 13 12 13 13 13 13 13 13 13
21 21 21 21 20 20 20 21 21 22 23 23 23 23 20 20 19 18 18 18 17 16 16 16 15 14 14 14 14 14 14 14 14 14 14 14 13 13 13 13 14 13 14 14
22 22 22 21 20 21 21 22 23 23 23 24 22 23 20 18 18 19 19 19 19 18 18 18 17 15 14 14 14 14 15 16 15 15 14 14 14 14 14 14 14 14 14 14
23 23 22 22 22 22 22 22 22 23 24 23 21 22 19 18 18 18 19 19 19 18 18 18 17 16 15 14 14 15 16 17 16 15 15 15 15 14 14 14 15 15 16 16
23 23 23 23 23 22 22 22 23 23 23 23 22 22 18 17 17 18 18 18 18 18 18 17 17 16 15 15 16 16 17 18 18 18 16 15 16 16 15 15 15 15 16 17
23 23 22 22 23 23 23 24 23 24 24 23 23 22 19 17 16 16 17 18 18 18 19 18 18 17 17 17 17 17 18 19 19 19 18 17 17 17 16 15 16 15 16 16
23 23 22 23 24 24 24 24 24 25 25 25 24 22 20 18 17 17 17 18 19 19 19 18 19 18 18 18 18 19 19 20 20 20 19 18 19 18 17 17 16 16 16 16
23 23 23 24 25 24 24 25 26 26 26 26 25 22 20 20 20 20 19 18 19 20 19 20 19 18 18 18 19 20 19 20 20 19 18 18 18 18 17 17 16 16 16 17
24 25 25 25 25 25 25 25 26 27 27 27 26 23 22 22 21 21 20 19 20 20 20 20 19 19 19 19 19 19 19 19 19 19 18 18 18 18 18 17 17 17 17 18
26 27 26 26 26 26 27 26 27 28 28 28 27 24 23 23 23 23 22 21 21 21 21 20 20 20 20 20 20 20 19 19 19 19 19 20 19 18 18 17 17 18 19 19
27 28 28 28 27 26 27 27 27 27 28 28 27 25 24 24 24 23 22 21 21 21 21 21 20 20 20 21 20 20 20 19 19 19 19 20 19 19 18 18 18 18 19 20
27 28 28 28 28 27 27 27 27 28 28 28 27 26 25 25 25 23 22 22 22 22 22 22 21 20 20 19 20 20 19 19 19 19 20 20 20 20 20 19 19 19 20 21
28 29 28 29 29 29 28 28 28 28 28 28 28 27 26 25 25 24 24 23 22 22 23 23 22 21 21 20 20 21 20 20 20 20 21 21 21 21 21 20 20 20 21 21
27 28 28 28 28 29 30 28 28 29 29 30 29 27 26 26 25 24 25 24 23 23 24 23 23 23 22 22 22 22 22 21 21 21 21 21 21 21 21 21 21 21 21 21
26 27 28 27 27 29 29 28 28 28 28 28 27 27 27 26 26 24 23 24 25 25 26 25 25 24 23 23 23 23 23 23 22 22 22 22 22 21 21 21 22 22 22 22
26 27 28 28 28 28 27 28 28 29 28 27 27 27 27 26 25 25 24 24 25 25 24 25 25 25 24 24 24 24 24 23 23 23 23 23 22 22 22 22 22 22 23 22
27 27 29 29 29 28 26 26 27 28 27 26 26 27 27 27 27 26 25 25 25 25 25 24 24 24 25 24 24 24 25 24 24 24 24 24 23 23 23 23 23 24 24 23
29 28 29 29 30 28 27 27 27 28 27 25 25 25 26 27 26 27 27 27 26 26 26 26 26 26 26 25 25 25 24 24 24 25 25 25 25 24 24 24 25 25 24 24
30 30 29 30 30 28 27 27 27 27 26 26 26 26 26 27 27 27 27 27 27 26 27 27 26 26 26 25 26 24 24 25 25 25 25 25 25 25 25 25 25 24 24 24
30 31 31 31 30 29 29 29 28 27 27 27 26 26 25 26 26 26 26 26 26 27 27 27 27 26 26 26 27 26 25 25 26 26 25 25 25 26 25 25 25 24 24 24
30 30 30 30 30 30 29 29 29 28 27 26 26 24 23 25 26 28 28 27 27 27 27 28 28 27 26 27 27 27 26 26 26 26 25 25 25 26 26 26 25 24 24 23
29 29 30 30 29 29 29 29 29 28 26 26 26 25 25 25 26 27 28 28 28 28 28 28 27 27 28 28 29 29 28 27 26 26 25 25 25 26 26 25 24 24 24 24
28 29 28 27 27 28 28 28 27 27 27 27 28 28 28 26 26 27 28 29 29 28 27 28 28 28 28 28 29 28 28 28 28 27 26 26 26 26 26 25 25 25 25 25
Wind_Direction
234 233 232 235 237 239 241 239 239 241 243 243 245 250 250 253 260 268 270 269 274 279 284 290 286 291 303 308 309 313 316 318 314 310 308 305 305 305 303 302 304 305 307 311
234 232 231 233 237 239 240 240 240 242 245 247 248 252 254 256 260 264 262 261 269 277 280 289 296 292 302 308 315 310 310 313 312 311 311 306 304 303 299 296 296 296 300 306
235 232 232 235 237 239 241 242 243 244 246 248 250 252 252 254 257 259 258 260 265 271 278 283 291 296 305 307 307 308 307 307 309 313 312 304 301 299 298 296 291 296 298 302
233 233 234 236 237 240 241 242 242 244 246 249 253 252 249 253 254 254 257 262 265 268 275 280 285 291 294 300 308 305 304 305 309 312 309 306 302 301 301 299 295 294 295 299
233 234 235 235 236 239 238 240 241 245 248 250 252 255 252 253 255 254 256 262 267 270 274 279 284 287 291 292 297 299 300 302 305 307 306 307 302 297 295 294 294 294 294 297
234 234 236 236 234 236 237 239 243 246 250 252 255 259 255 254 258 256 258 262 266 270 275 278 281 281 282 284 288 293 296 297 299 303 305 308 304 300 296 291 291 291 292 293
234 235 235 235 234 234 237 240 244 247 251 254 256 258 260 256 257 258 259 260 264 269 273 277 277 275 277 280 282 284 288 291 293 293 298 301 302 300 297 293 291 292 292 294
236 235 236 236 236 237 240 243 248 252 255 256 255 258 261 258 257 259 260 260 262 266 269 274 276 272 274 277 280 285 287 288 290 289 293 296 296 297 300 294 290 291 290 292
235 237 238 238 238 238 242 244 249 254 256 257 256 256 257 258 261 263 263 264 265 264 267 270 272 272 272 276 280 286 290 290 288 289 291 292 296 295 295 294 291 289 294 296
234 236 236 238 239 239 242 246 249 253 257 259 260 259 260 259 261 261 264 266 265 263 265 268 269 270 271 274 277 284 288 291 292 292 289 292 295 292 292 289 288 290 293 295
235 236 236 238 240 241 242 245 250 254 257 261 263 264 262 261 261 261 264 268 266 261 263 267 270 272 275 276 278 281 287 290 291 292 291 293 294 290 288 289 290 290 292 295
236 238 239 240 242 243 245 247 251 254 257 261 265 267 265 265 262 262 262 266 265 262 264 268 274 275 276 279 280 281 286 289 290 291 292 293 293 288 288 289 289 291 292 295
238 240 241 241 242 244 247 249 252 255 256 260 263 265 265 264 263 263 264 265 264 262 266 271 274 275 277 279 279 280 282 284 287 290 291 292 291 287 288 288 289 290 292 295
241 243 244 246 248 250 251 252 253 255 257 260 262 264 262 262 263 265 266 266 265 265 268 273 274 276 279 279 278 278 280 281 283 286 288 291 289 287 288 288 288 289 291 292
241 244 246 247 248 250 253 254 254 255 258 261 264 263 263 263 262 263 264 266 266 267 269 272 274 276 281 283 281 281 280 281 282 285 288 291 290 288 287 287 287 287 290 291
243 246 247 248 248 250 253 253 254 257 259 262 264 263 264 264 262 260 262 264 266 267 271 274 276 277 281 284 284 282 279 279 280 283 286 288 289 287 286 284 285 287 288 289
245 246 248 249 249 251 251 253 255 257 259 261 262 263 263 264 263 262 262 261 263 266 271 274 277 279 281 282 281 281 281 279 279 281 283 284 286 285 283 281 283 285 287 288
247 247 248 250 250 252 253 254 255 257 260 260 260 260 261 263 262 261 262 263 264 268 271 272 275 279 281 281 280 281 282 282 282 281 281 282 283 283 282 282 283 285 287 287
248 249 249 250 252 255 254 255 255 256 257 258 258 259 261 262 261 260 262 264 265 269 271 271 274 278 279 279 279 280 280 283 285 285 283 282 282 281 283 284 284 285 286 286
249 250 252 252 254 257 256 255 255 256 256 256 257 259 261 260 260 261 262 264 266 268 270 272 275 278 278 279 280 282 281 284 285 285 285 283 282 282 282 282 284 285 284 285
250 252 252 253 256 258 257 258 258 257 257 256 257 259 258 260 261 263 263 264 266 269 270 271 274 277 278 279 281 282 281 282 282 284 285 283 283 282 282 281 283 283 283 283
253 254 253 253 256 257 257 260 260 258 254 257 258 259 261 261 261 262 262 265 267 269 269 270 273 275 277 279 280 279 280 280 281 283 283 284 283 283 282 281 281 281 282 283
253 254 255 256 257 258 258 260 261 258 256 257 259 259 260 260 260 259 262 264 266 268 270 272 273 275 275 277 279 278 279 279 281 282 282 283 284 284 282 282 281 281 282 282
255 256 257 257 255 257 259 260 261 262 260 258 260 259 257 261 262 259 261 264 266 269 270 272 272 273 275 277 278 279 278 278 280 280 280 281 281 283 282 283 283 281 281 282
257 257 259 259 256 255 257 259 259 259 258 257 258 259 260 262 262 262 263 265 266 268 268 270 272 273 274 277 279 278 274 273 275 277 277 278 278 280 281 281 282 282 281 280
256 258 258 257 256 255 255 255 256 256 257 258 259 260 261 262 263 263 265 267 269 270 268 268 270 274 276 278 281 279 273 271 273 276 276 277 278 279 280 280 282 281 280 280
Height
5849 5852 5854 5856 5858 5860 5861 5864 5866 5867 5867 5868 5870 5871 5872 5873 5874 5875 5876 5877 5877 5878 5878 5877 5877 5876 5876 5875 5873 5872 5871 5869 5868 5867 5866 5865 5863 5862 5861 5860 5859 5858 5857 5856
5847 5849 5851 5852 5854 5856 5858 5860 5863 5864 5864 5865 5867 5868 5869 5870 5871 5872 5873 5874 5875 5875 5875 5875 5874 5874 5873 5872 5871 5870 5868 5867 5866 5865 5863 5862 5861 5859 5858 5857 5856 5856 5855 5854
5843 5846 5847 5848 5850 5853 5855 5857 5859 5860 5861 5862 5863 5864 5866 5867 5867 5869 5870 5871 5871 5872 5872 5872 5871 5871 5871 5870 5869 5868 5866 5865 5863 5862 5861 5860 5858 5857 5855 5854 5854 5853 5852 5851
5839 5841 5843 5845 5847 5849 5852 5854 5855 5856 5857 5858 5860 5860 5863 5863 5864 5865 5866 5867 5868 5869 5869 5869 5868 5868 5867 5867 5866 5865 5864 5862 5861 5859 5858 5857 5856 5854 5853 5852 5851 5850 5850 5849
5835 5837 5839 5841 5844 5846 5848 5849 5851 5852 5853 5854 5855 5856 5859 5860 5861 5862 5863 5864 5864 5865 5866 5865 5864 5864 5864 5863 5863 5862 5861 5859 5858 5857 5855 5853 5853 5852 5850 5849 5848 5847 5847 5846
5831 5833 5835 5838 5840 5842 5844 5846 5847 5847 5848 5850 5852 5852 5854 5856 5857 5858 5859 5860 5861 5861 5862 5862 5861 5860 5860 5859 5859 5858 5857 5856 5854 5853 5851 5850 5849 5848 5847 5846 5845 5844 5844 5843
5827 5829 5831 5834 5836 5838 5840 5842 5843 5844 5844 5846 5848 5848 5851 5852 5853 5854 5855 5856 5856 5857 5858 5858 5857 5856 5856 5855 5855 5855 5854 5852 5851 5850 5848 5847 5846 5844 5843 5842 5841 5841 5840 5839
5822 5825 5828 5830 5832 5834 5836 5838 5840 5841 5841 5842 5843 5844 5848 5848 5849 5850 5851 5852 5853 5853 5853 5854 5853 5853 5852 5851 5851 5850 5849 5848 5847 5846 5844 5843 5842 5841 5839 5839 5838 5837 5836 5835
5818 5821 5824 5826 5828 5830 5832 5833 5835 5836 5836 5837 5838 5840 5843 5844 5845 5846 5847 5848 5848 5849 5849 5849 5849 5849 5848 5847 5847 5846 5845 5844 5843 5842 5840 5840 5839 5837 5836 5835 5834 5833 5832 5830
5814 5817 5819 5821 5823 5825 5827 5829 5830 5831 5831 5832 5833 5835 5839 5840 5841 5842 5843 5844 5844 5844 5845 5845 5845 5844 5844 5843 5843 5842 5841 5839 5838 5837 5837 5836 5834 5833 5831 5830 5830 5829 5828 5826
5808 5812 5814 5816 5818 5820 5823 5824 5824 5826 5826 5827 5828 5833 5834 5835 5836 5837 5838 5839 5839 5840 5840 5840 5840 5839 5839 5839 5838 5837 5836 5835 5834 5833 5832 5831 5829 5828 5827 5826 5825 5824 5823 5822
5803 5806 5808 5811 5813 5815 5817 5818 5820 5821 5822 5822 5823 5829 5828 5830 5831 5832 5833 5834 5834 5835 5835 5835 5835 5835 5834 5834 5833 5832 5831 5830 5829 5828 5827 5826 5825 5824 5823 5822 5821 5820 5819 5818
5797 5800 5802 5804 5808 5809 5810 5812 5814 5816 5816 5817 5818 5823 5823 5824 5825 5827 5828 5829 5829 5829 5830 5830 5830 5830 5829 5829 5828 5827 5826 5825 5824 5823 5822 5821 5820 5819 5818 5817 5816 5815 5814 5812
5792 5794 5797 5799 5801 5803 5804 5806 5808 5809 5810 5811 5813 5815 5817 5818 5819 5821 5822 5822 5823 5824 5824 5824 5824 5824 5823 5823 5822 5821 5820 5819 5819 5818 5817 5816 5815 5814 5813 5812 5811 5810 5809 5807
5785 5787 5790 5792 5795 5797 5798 5800 5802 5803 5804 5805 5807 5808 5811 5812 5813 5815 5816 5817 5818 5818 5819 5819 5819 5818 5817 5817 5816 5815 5814 5814 5813 5812 5812 5811 5809 5808 5807 5806 5805 5804 5803 5802
5779 5781 5783 5785 5787 5789 5791 5793 5795 5796 5798 5799 5800 5802 5804 5805 5807 5808 5810 5811 5812 5813 5813 5813 5812 5812 5811 5810 5809 5809 5809 5808 5807 5807 5806 5805 5804 5803 5802 5801 5800 5799 5798 5796
5772 5775 5777 5778 5780 5781 5783 5786 5788 5789 5791 5792 5793 5796 5797 5798 5800 5802 5803 5804 5805 5806 5806 5806 5806 5806 5805 5804 5804 5803 5802 5802 5801 5801 5800 5799 5798 5797 5796 5795 5794 5793 5792 5790
5766 5768 5770 5772 5774 5774 5779 5780 5781 5782 5783 5785 5786 5788 5789 5791 5793 5794 5796 5797 5798 5799 5799 5799 5799 5799 5799 5798 5797 5797 5796 5795 5795 5794 5793 5793 5792 5791 5790 5789 5788 5786 5785 5784
5760 5762 5763 5765 5766 5768 5771 5772 5773 5775 5776 5778 5779 5780 5782 5783 5785 5787 5789 5790 5791 5792 5792 5792 5792 5792 5791 5791 5790 5789 5789 5788 5787 5787 5787 5786 5785 5784 5783 5782 5781 5779 5778 5777
5754 5755 5757 5758 5759 5761 5765 5765 5766 5768 5769 5771 5772 5773 5774 5776 5778 5780 5781 5782 5783 5784 5785 5784 5784 5784 5783 5783 5782 5782 5781 5781 5780 5779 5779 5778 5778 5777 5776 5775 5774 5772 5771 5770
5747 5748 5749 5751 5752 5754 5757 5758 5759 5762 5764 5764 5765 5766 5767 5769 5771 5773 5774 5775 5776 5776 5777 5777 5777 5777 5776 5776 5775 5774 5774 5773 5773 5772 5771 5771 5770 5770 5769 5768 5767 5765 5764 5763
5739 5741 5743 5744 5745 5749 5749 5750 5752 5754 5755 5756 5758 5759 5761 5762 5763 5765 5766 5767 5767 5768 5769 5769 5769 5769 5768 5768 5767 5767 5766 5766 5765 5764 5764 5763 5763 5762 5761 5760 5759 5758 5757 5756
5732 5734 5735 5737 5740 5740 5741 5743 5744 5745 5747 5749 5750 5752 5753 5755 5756 5757 5758 5759 5760 5760 5760 5761 5761 5761 5760 5760 5760 5759 5758 5758 5757 5756 5756 5755 5755 5754 5753 5752 5752 5750 5750 5749
5724 5726 5727 5729 5731 5732 5733 5735 5736 5738 5739 5741 5743 5744 5746 5747 5748 5750 5751 5751 5752 5752 5752 5752 5752 5752 5752 5752 5751 5751 5750 5750 5749 5748 5748 5747 5747 5746 5745 5745 5744 5743 5742 5742
5717 5718 5719 5721 5722 5724 5726 5727 5729 5730 5732 5733 5735 5737 5738 5740 5741 5741 5742 5743 5743 5743 5744 5743 5743 5743 5744 5743 5742 5742 5741 5741 5741 5740 5740 5739 5739 5738 5738 5737 5736 5736 5735 5734
5710 5711 5712 5713 5715 5717 5719 5719 5721 5722 5724 5726 5728 5729 5731 5731 5733 5733 5734 5734 5735 5735 5735 5735 5735 5735 5735 5735 5734 5733 5732 5733 5733 5732 5732 5731 5730 5730 5730 5730 5729 5728 5728 5727